Location: Unspecified
(33.7438°N, 118.3804°W)
Time: 05:30:40
(UTC+00:00)

Daily predictions for brighter satellites

Satellite Brightness Start Highest point End
(mag) Time Altitude Azimuth Time Altitude Azimuth Time Altitude Azimuth
Tsikada Rocket 4.0 01:01:16 10° N 01:07:23 65° E 01:13:30 10° SSE
Meteor 2-12 Rocket 4.5 01:02:43 10° S 01:08:49 85° E 01:14:55 10° N
IRAS Rocket 4.3 01:03:34 10° SSE 01:09:08 82° ENE 01:14:40 10° NNW
Cosmos 1862 4.4 01:07:56 10° NNW 01:11:51 50° W 01:15:44 10° SSW
Landsat 4 4.4 01:08:38 10° NNE 01:12:07 34° E 01:15:35 10° SSE
OE (NEXTSAT) 4.4 01:09:31 10° WNW 01:13:02 85° SW 01:16:33 10° SE
ERBS 3.3 01:12:49 10° NNW 01:15:46 27° NE 01:18:43 10° ESE
Cosmos 1703 Rocket 4.3 01:13:07 10° SSE 01:17:05 32° E 01:21:04 10° NNE
Cosmos 1782 3.9 01:15:07 10° SE 01:18:26 25° E 01:21:46 10° NE
CENTAUR R/B 4.0 01:19:51 10° WSW 01:25:10 32° NW 01:31:07 10° NNE
CSL-04 Rocket 3.7 01:21:59 10° SSE 01:27:15 83° WSW 01:32:36 10° NNW
GENESIS II 4.3 01:26:44 10° NNW 01:30:35 54° ENE 01:34:22 10° SE
Cosmos 2082 Rocket 3.4 01:26:28 10° NNE 01:30:36 20° ENE 01:34:41 10° ESE
Meteor 1-20 Rocket 4.5 01:26:07 10° N 01:31:24 43° ENE 01:36:35 10° SSE
Cosmos 468 Rocket 4.2 01:26:27 10° NNW 01:31:37 78° WSW 01:36:43 10° S
ALOS 3.4 01:28:40 10° ESE 01:32:08 21° ENE 01:35:37 10° NNE
Cosmos 405 Rocket 4.2 01:30:08 10° SE 01:32:37 17° E 01:34:12 13° ENE
METEOR-M 4.4 01:32:12 10° SE 01:37:13 44° ENE 01:42:16 10° N
ERS-2 2.6 01:34:46 10° SE 01:38:10 36° ENE 01:41:34 10° N
Cosmos 1464 Rocket 4.3 01:34:32 10° SSE 01:40:13 42° E 01:45:55 10° NNE
SMAP 3.3 01:36:28 10° S 01:41:05 73° WSW 01:45:44 10° NNW
Cosmos 1908 Rocket 3.4 01:42:14 10° N 01:46:33 68° E 01:50:51 10° SSE
SKYMED 2 3.5 01:42:49 10° NNE 01:47:08 63° E 01:51:25 10° S
Cosmos 1763 Rocket 3.4 01:46:20 10° NNW 01:51:33 90° NNW 01:56:40 10° SSE
Meteor 1-10 Rocket 4.2 01:50:01 10° S 01:55:31 60° E 02:01:10 10° NNE
SL-27 R/B 2.5 01:54:15 10° N 01:57:28 45° ENE 02:00:42 10° SSE
Sich 1 Rocket 3.5 01:54:46 10° N 01:59:12 79° E 02:03:39 10° S
Cosmos 972 4.4 01:59:18 10° NNW 02:04:15 82° WSW 02:09:07 10° S
Cosmos 1503 Rocket 4.0 02:02:11 10° SSW 02:07:29 90° WNW 02:12:45 10° NNE
Okean 1-7 3.2 02:09:26 10° S 02:13:46 76° W 02:18:11 10° N
FENGYUN 3A 3.6 02:09:47 10° SSE 02:15:05 61° ENE 02:20:25 10° N
Cosmos 1633 2.6 02:11:36 10° N 02:15:16 83° W 02:18:56 10° S
Cosmos 968 Rocket 3.9 02:11:24 10° S 02:16:09 39° E 02:17:16 35° ENE
CZ-4 R/B 3.4 02:13:55 10° SSW 02:17:20 29° W 02:20:45 10° NW
CZ-4C R/B 3.8 02:14:33 10° N 02:20:29 26° NE 02:20:54 26° NE
Cosmos 540 Rocket 3.4 02:15:36 10° N 02:20:43 61° ENE 02:25:48 10° SSE
GPS 2-05 Rocket1 2.8 02:19:01 10° WSW 02:22:05 58° S 02:22:05 58° S
Cosmos 1513 Rocket 4.4 02:17:07 10° S 02:23:28 88° E 02:29:44 10° N
Cosmos 2369 Rocket 4.3 02:20:56 10° SE 02:21:00 10° SE 02:21:00 10° SE
DMSP B5D1-3 4.5 02:19:19 10° NNE 02:24:30 88° WNW 02:29:38 10° SSW
Cosmos 2297 4.0 02:19:31 10° SSW 02:25:11 68° WNW 02:30:32 12° NNE
Cosmos 836 Rocket 4.4 02:20:14 10° N 02:25:28 66° ENE 02:30:42 10° SSE
Cosmos 841 Rocket 4.2 02:21:06 10° NNW 02:26:15 56° WSW 02:31:22 10° S
Cosmos 1833 Rocket 2.6 02:23:13 10° NNW 02:28:48 65° ENE 02:34:22 10° SSE
Meteor 1-11 Rocket 3.9 02:24:22 10° N 02:30:03 50° ENE 02:35:34 10° SSE
Cosmos 1782 Rocket 3.9 02:26:39 10° NNW 02:30:57 63° W 02:35:14 10° S
Cosmos 2278 Rocket 4.3 02:26:44 10° WSW 02:31:13 24° WNW 02:35:45 10° N
USA 234 3.8 02:27:13 18° NNE 02:32:03 54° NW 02:38:20 10° WSW
YAOGAN 1 4.3 02:28:09 10° SSW 02:32:03 33° W 02:35:59 10° NNW
COSMO-SKYMED 1 4.2 02:31:12 10° N 02:35:06 33° WNW 02:38:58 10° SW
Cosmos 1441 Rocket 3.2 02:32:19 10° S 02:36:17 83° W 02:36:52 63° N
BREEZE-M R/B 3.2 02:37:52 10° NW 02:40:39 58° N 02:40:39 58° N
OAO 3 Copernicus 4.2 02:37:14 10° W 02:42:20 88° SSW 02:42:57 70° ESE
OAO 3 Rocket 3.3 02:37:31 10° WSW 02:42:23 61° SSE 02:42:40 59° SE
SPOT 3 Rocket 4.1 02:38:12 10° S 02:43:20 59° WSW 02:48:29 10° NNW
Nadezhda 4 Rocket 3.8 02:52:55 10° N 02:59:04 83° E 03:05:11 10° S
ALOS 4.0 03:05:12 10° SSW 03:09:20 31° W 03:13:29 10° NW
MOS 1-B Rocket 4.4 03:02:48 10° SSE 03:09:41 80° ENE 03:17:53 10° N
Cosmos 2082 Rocket 3.0 03:09:28 10° NNW 03:14:55 49° WSW 03:20:19 10° S
USA 229 DEB 3.6 03:11:20 10° SSW 03:17:34 77° S 03:17:34 77° S
USA 229 3.6 03:11:26 10° SSW 03:17:37 76° S 03:17:37 76° S
Thor Agena Rocket 4.4 03:20:18 43° NW 03:20:56 45° WNW 03:25:48 10° SW
CZ-3C R/B 4.4 02:39:58 10° W 03:45:29 41° SSW 03:48:20 35° S
CZ-4C R/B 4.0 04:02:10 10° NW 04:06:09 36° NW 04:06:09 36° NW
Atlas Centaur 2 4.3 10:55:38 31° ESE 10:55:38 31° ESE 10:59:43 10° E
